{"data":{"norad_id":36037,"epoch":"2026-05-25T01:30:46.891872Z","epoch_age_seconds":79635,"freshness":"FRESH","line1":"1 36037U 09059B   26145.06304273  .00000142  00000+0  43528-4 0  9997","line2":"2 36037  98.2450 328.7370 0013130 358.1363   1.9783 14.54850827878168","mean_motion":14.54850827,"eccentricity":0.001313,"inclination_deg":98.245,"raan_deg":328.737,"arg_perigee_deg":358.1363,"mean_anomaly_deg":1.9783,"bstar":4.3528e-5,"rev_number":87816,"period_min":98.97921994995,"perigee_km":700.54269296777,"apogee_km":719.15574477853,"semimajor_km":7087.9862188732,"source":"CELESTRAK","updated_at":"2026-05-25T13:38:24.894079Z"}}